User: anonymous   Login
Location: Unspecified
(0.0000°N, 0.0000°E)
Time: 20:02:50
(UTC+00:00)
Language:

GSAT 7 - Orbit

View from above orbital plane
View from above orbital plane
View from above satellite
View from above satellite

Ground track
Ground track

The orbit data is extracted from the following two-line orbital elements,

1 39234U 13044B   19047.50302968 -.00000086  00000-0  00000+0 0  9991
2 39234   0.0673 278.4815 0009304   8.9294 113.8501  1.00270871 20054
Epoch (UTC): 16 February 2019 12:04:21
Eccentricity: 0.0009304
inclination: 0.0673°
perigee height: 35747 km
apogee height: 35826 km
right ascension of ascending node: 278.4815°
argument of perigee: 8.9294°
revolutions per day: 1.00270871
mean anomaly at epoch: 113.8501°
orbit number at epoch: 2005

The dashed part of the orbit path shows where the satellite is in the earth's shadow,  

DLR